Location: Kawakawa
(35.3830°S, 174.0670°E)
Time: 02:56:58
(UTC+13:00)

IRAS Rocket - Pass Details

Date: 24 January 2019
Orbit: 848 x 878 km, 100.1° (Epoch: 18 February)

Event Time Altitude Azimuth Distance (km) Brightness Sun altitude
Rises 23:31:12 0° 169° (S) 3,483 8.0 -27.9°
Reaches altitude 10° 23:33:37 10° 171° (S) 2,534 7.2 -28.2°
Maximum altitude 23:39:12 69° 252° (WSW) 928 4.4 -28.8°
Enters shadow 23:39:47 64° 290° (WNW) 959 4.4 -28.9°
